| time (UTC) | temp F | wind direction | speed MPH | gust MPH | rain 1hr in | rain 24hr in | rain mn in | humidity % | barometer mb |
| 20260904135403 | 67 | 323 | 0.0 | 2.0 | 0.00 | 0.00 | 0.00 | 49 | 988.6 |
| 20260904134503 | 64 | 323 | 1.0 | 2.0 | 0.00 | 0.00 | 0.00 | 52 | 988.5 |
| 20260904133604 | 63 | 323 | 1.0 | 3.0 | 0.00 | 0.00 | 0.00 | 54 | 988.5 |
| 20260904132703 | 61 | 323 | 2.0 | 3.0 | 0.00 | 0.00 | 0.00 | 54 | 988.4 |
| 20260904131803 | 60 | 323 | 2.0 | 4.0 | 0.00 | 0.00 | 0.00 | 55 | 988.3 |
| 20260904130903 | 60 | 321 | 2.0 | 4.0 | 0.00 | 0.00 | 0.00 | 56 | 988.1 |
| 20260904130003 | 60 | 321 | 1.0 | 3.0 | 0.00 | 0.00 | 0.00 | 54 | 987.9 |
| 20260904125403 | 60 | 321 | 2.0 | 4.0 | 0.00 | 0.00 | 0.00 | 52 | 987.9 |
| 20260904124716 | 59 | 322 | 3.0 | 5.0 | 0.00 | 0.00 | 0.00 | 53 | 987.7 |
| 20260904123604 | 59 | 323 | 1.0 | 2.0 | 0.00 | 0.00 | 0.00 | 54 | 987.6 |
| 20260904122704 | 60 | 323 | 0.0 | 2.0 | 0.00 | 0.00 | 0.00 | 53 | 987.4 |
| 20260904121803 | 61 | 323 | 0.0 | 2.0 | 0.00 | 0.00 | 0.00 | 50 | 987.4 |
| 20260904120903 | 61 | 323 | 1.0 | 2.0 | 0.00 | 0.00 | 0.00 | 50 | 987.3 |
| 20260904120217 | 62 | 323 | 1.0 | 3.0 | 0.00 | 0.00 | 0.00 | 48 | 987.2 |
| 20260904115403 | 62 | 323 | 1.0 | 3.0 | 0.00 | 0.00 | 0.00 | 46 | 987.2 |
| 20260904114503 | 62 | 320 | 2.0 | 5.0 | 0.00 | 0.00 | 0.00 | 47 | 987.1 |
| 20260904113603 | 62 | 315 | 3.0 | 5.0 | 0.00 | 0.00 | 0.00 | 47 | 986.9 |
| 20260904112703 | 62 | 277 | 3.0 | 7.0 | 0.00 | 0.00 | 0.00 | 46 | 986.9 |
| 20260904111804 | 63 | 291 | 3.0 | 7.0 | 0.00 | 0.00 | 0.00 | 45 | 987.0 |
| 20260904110903 | 62 | 302 | 2.0 | 4.0 | 0.00 | 0.00 | 0.00 | 45 | 986.9 |
| 20260904110003 | 62 | 302 | 1.0 | 3.0 | 0.00 | 0.00 | 0.00 | 44 | 986.9 |
| 20260904105403 | 62 | 302 | 1.0 | 4.0 | 0.00 | 0.00 | 0.00 | 46 | 986.9 |
| 20260904104504 | 62 | 300 | 2.0 | 7.0 | 0.00 | 0.00 | 0.00 | 44 | 986.7 |
| 20260904103603 | 63 | 318 | 2.0 | 7.0 | 0.00 | 0.00 | 0.00 | 43 | 986.6 |
| 20260904102703 | 64 | 323 | 2.0 | 4.0 | 0.00 | 0.00 | 0.00 | 42 | 986.6 |
| 20260904101803 | 64 | 323 | 2.0 | 4.0 | 0.00 | 0.00 | 0.00 | 40 | 986.5 |
| 20260904100904 | 65 | 325 | 2.0 | 5.0 | 0.00 | 0.00 | 0.00 | 38 | 986.5 |
| 20260904100218 | 66 | 318 | 2.0 | 6.0 | 0.00 | 0.00 | 0.00 | 37 | 986.4 |
| 20260904095403 | 67 | 309 | 2.0 | 7.0 | 0.00 | 0.00 | 0.00 | 36 | 986.2 |
| 20260904094717 | 68 | 308 | 3.0 | 9.0 | 0.00 | 0.00 | 0.00 | 35 | 986.1 |
| 20260904093603 | 69 | 316 | 5.0 | 8.0 | 0.00 | 0.00 | 0.00 | 34 | 986.1 |
| 20260904092703 | 70 | 328 | 5.0 | 9.0 | 0.00 | 0.00 | 0.00 | 32 | 986.2 |
| 20260904091803 | 70 | 327 | 5.0 | 12.0 | 0.00 | 0.00 | 0.00 | 32 | 986.1 |
| 20260904091117 | 70 | 330 | 6.0 | 12.0 | 0.00 | 0.00 | 0.00 | 32 | 986.0 |
| 20260904090004 | 70 | 322 | 5.0 | 10.0 | 0.00 | 0.00 | 0.00 | 33 | 985.9 |
| 20260904085403 | 70 | 320 | 8.0 | 15.0 | 0.00 | 0.00 | 0.00 | 32 | 985.9 |
| 20260904084503 | 70 | 315 | 9.0 | 14.0 | 0.00 | 0.00 | 0.00 | 33 | 985.9 |
| 20260904083603 | 70 | 319 | 8.0 | 13.0 | 0.00 | 0.00 | 0.00 | 33 | 986.0 |
| 20260904082703 | 69 | 325 | 6.0 | 13.0 | 0.00 | 0.00 | 0.00 | 34 | 986.1 |
| 20260904081803 | 68 | 323 | 5.0 | 10.0 | 0.00 | 0.00 | 0.00 | 35 | 986.0 |
| 20260904080903 | 68 | 330 | 5.0 | 9.0 | 0.00 | 0.00 | 0.00 | 35 | 985.9 |
| 20260904080003 | 68 | 323 | 4.0 | 8.0 | 0.00 | 0.00 | 0.00 | 36 | 985.9 |
| 20260904075404 | 68 | 328 | 4.0 | 8.0 | 0.00 | 0.00 | 0.00 | 36 | 985.9 |
| 20260904074503 | 69 | 327 | 4.0 | 8.0 | 0.00 | 0.00 | 0.00 | 36 | 985.8 |
| 20260904073603 | 68 | 327 | 6.0 | 10.0 | 0.00 | 0.00 | 0.00 | 35 | 986.0 |
| 20260904072703 | 68 | 327 | 4.0 | 10.0 | 0.00 | 0.00 | 0.00 | 36 | 986.0 |
| 20260904071803 | 69 | 323 | 3.0 | 5.0 | 0.00 | 0.00 | 0.00 | 35 | 986.0 |
| 20260904070903 | 70 | 312 | 1.0 | 5.0 | 0.00 | 0.00 | 0.00 | 35 | 986.0 |
| 20260904070003 | 70 | 10 | 1.0 | 5.0 | 0.00 | 0.00 | 0.00 | 33 | 985.8 |
| 20260904065403 | 71 | 350 | 3.0 | 8.0 | 0.00 | 0.00 | 0.00 | 33 | 985.8 |
| 20260904064504 | 72 | 328 | 4.0 | 9.0 | 0.00 | 0.00 | 0.00 | 32 | 985.7 |
| 20260904063603 | 72 | 331 | 5.0 | 11.0 | 0.00 | 0.00 | 0.00 | 31 | 985.6 |
| 20260904062703 | 72 | 333 | 6.0 | 10.0 | 0.00 | 0.00 | 0.00 | 31 | 985.5 |
| 20260904061803 | 72 | 332 | 6.0 | 12.0 | 0.00 | 0.00 | 0.00 | 32 | 985.4 |
| 20260904061117 | 72 | 323 | 6.0 | 11.0 | 0.00 | 0.00 | 0.00 | 32 | 985.3 |
| 20260904060006 | 72 | 337 | 6.0 | 13.0 | 0.00 | 0.00 | 0.00 | 32 | 985.4 |
| 20260904055403 | 73 | 338 | 6.0 | 13.0 | 0.00 | 0.00 | 0.00 | 31 | 985.3 |
| 20260904054503 | 74 | 341 | 5.0 | 10.0 | 0.00 | 0.00 | 0.00 | 30 | 985.1 |
| 20260904053604 | 74 | 328 | 6.0 | 12.0 | 0.00 | 0.00 | 0.00 | 28 | 985.2 |
| 20260904052703 | 73 | 324 | 7.0 | 12.0 | 0.00 | 0.00 | 0.00 | 31 | 985.0 |
| 20260904051803 | 71 | 317 | 3.0 | 10.0 | 0.00 | 0.00 | 0.00 | 33 | 984.9 |
| 20260904050903 | 72 | 331 | 3.0 | 8.0 | 0.00 | 0.00 | 0.00 | 32 | 985.1 |
| 20260904050003 | 71 | 336 | 5.0 | 12.0 | 0.00 | 0.00 | 0.00 | 31 | 985.1 |
| 20260904045403 | 71 | 332 | 6.0 | 12.0 | 0.00 | 0.00 | 0.00 | 32 | 985.0 |
| 20260904044503 | 70 | 321 | 4.0 | 11.0 | 0.00 | 0.00 | 0.00 | 33 | 985.0 |
| 20260904043603 | 70 | 330 | 2.0 | 6.0 | 0.00 | 0.00 | 0.00 | 37 | 984.9 |
| 20260904042704 | 70 | 325 | 5.0 | 9.0 | 0.00 | 0.00 | 0.00 | 37 | 985.0 |
| 20260904041803 | 69 | 30 | 1.0 | 4.0 | 0.00 | 0.00 | 0.00 | 40 | 985.0 |
| 20260904040903 | 69 | 19 | 1.0 | 5.0 | 0.00 | 0.00 | 0.00 | 38 | 984.9 |
| 20260904040003 | 70 | 328 | 2.0 | 5.0 | 0.00 | 0.00 | 0.00 | 37 | 984.9 |
| 20260904035618 | 70 | 321 | 1.0 | 5.0 | 0.00 | 0.00 | 0.00 | 40 | 984.9 |
| 20260904034503 | 70 | 331 | 2.0 | 5.0 | 0.00 | 0.00 | 0.00 | 40 | 984.8 |
| 20260904033603 | 71 | 303 | 2.0 | 5.0 | 0.00 | 0.00 | 0.00 | 41 | 984.7 |
| 20260904032703 | 71 | 308 | 3.0 | 8.0 | 0.00 | 0.00 | 0.00 | 40 | 984.6 |
| 20260904031804 | 71 | 344 | 1.0 | 4.0 | 0.00 | 0.00 | 0.00 | 40 | 984.5 |
| 20260904030903 | 72 | 10 | 1.0 | 3.0 | 0.00 | 0.00 | 0.00 | 39 | 984.5 |
| 20260904030003 | 73 | 10 | 1.0 | 3.0 | 0.00 | 0.00 | 0.00 | 40 | 984.3 |
| 20260904025403 | 74 | 5 | 2.0 | 4.0 | 0.00 | 0.00 | 0.00 | 37 | 984.3 |
| 20260904024503 | 74 | 252 | 0.0 | 3.0 | 0.00 | 0.00 | 0.00 | 37 | 984.3 |
| 20260904023818 | 75 | 236 | 2.0 | 4.0 | 0.00 | 0.00 | 0.00 | 37 | 984.2 |
| 20260904022703 | 77 | 96 | 0.0 | 2.0 | 0.00 | 0.00 | 0.00 | 34 | 984.1 |
| 20260904021803 | 78 | 114 | 2.0 | 4.0 | 0.00 | 0.00 | 0.00 | 33 | 983.8 |
| 20260904020904 | 79 | 178 | 3.0 | 5.0 | 0.00 | 0.00 | 0.00 | 31 | 983.8 |
| 20260904020003 | 79 | 165 | 1.0 | 5.0 | 0.00 | 0.00 | 0.00 | 32 | 983.6 |
| 20260904015617 | 80 | 146 | 1.0 | 4.0 | 0.00 | 0.00 | 0.00 | 32 | 983.6 |
| 20260904014503 | 80 | 103 | 2.0 | 6.0 | 0.00 | 0.00 | 0.00 | 29 | 983.4 |
| 20260904013603 | 82 | 146 | 1.0 | 3.0 | 0.00 | 0.00 | 0.00 | 29 | 983.5 |
| 20260904012703 | 83 | 250 | 1.0 | 4.0 | 0.00 | 0.00 | 0.00 | 30 | 983.5 |
| 20260904012016 | 85 | 166 | 3.0 | 7.0 | 0.00 | 0.00 | 0.00 | 28 | 983.5 |
| 20260904010903 | 86 | 97 | 2.0 | 6.0 | 0.00 | 0.00 | 0.00 | 20 | 983.4 |
| 20260904010004 | 88 | 128 | 1.0 | 3.0 | 0.00 | 0.00 | 0.00 | 24 | 983.4 |
| 20260904005616 | 88 | 130 | 2.0 | 4.0 | 0.00 | 0.00 | 0.00 | 24 | 983.4 |
| 20260904004503 | 90 | 140 | 2.0 | 4.0 | 0.00 | 0.00 | 0.00 | 19 | 983.4 |
| 20260904003603 | 91 | 141 | 2.0 | 5.0 | 0.00 | 0.00 | 0.00 | 17 | 983.5 |
| 20260904002703 | 92 | 124 | 2.0 | 6.0 | 0.00 | 0.00 | 0.00 | 17 | 983.4 |
| 20260904001803 | 92 | 157 | 2.0 | 6.0 | 0.00 | 0.00 | 0.00 | 18 | 983.6 |
| 20260904000903 | 92 | 175 | 3.0 | 9.0 | 0.00 | 0.00 | 0.00 | 19 | 983.6 |
| 20260904000218 | 92 | 158 | 4.0 | 9.0 | 0.00 | 0.00 | 0.00 | 18 | 983.6 |
| 20260903235404 | 92 | 122 | 6.0 | 13.0 | 0.00 | 0.00 | 0.00 | 21 | 983.6 |
| 20260903234503 | 92 | 110 | 7.0 | 13.0 | 0.00 | 0.00 | 0.00 | 18 | 983.6 |
| 20260903233603 | 92 | 112 | 7.0 | 12.0 | 0.00 | 0.00 | 0.00 | 18 | 983.6 |
| 20260903232703 | 92 | 116 | 6.0 | 11.0 | 0.00 | 0.00 | 0.00 | 17 | 983.6 |
| 20260903231803 | 92 | 133 | 6.0 | 11.0 | 0.00 | 0.00 | 0.00 | 18 | 983.7 |
| 20260903230903 | 93 | 133 | 5.0 | 10.0 | 0.00 | 0.00 | 0.00 | 17 | 983.8 |
| 20260903230003 | 93 | 105 | 3.0 | 8.0 | 0.00 | 0.00 | 0.00 | 17 | 983.9 |
| 20260903225403 | 94 | 119 | 2.0 | 8.0 | 0.00 | 0.00 | 0.00 | 17 | 983.8 |
| 20260903224717 | 93 | 342 | 1.0 | 5.0 | 0.00 | 0.00 | 0.00 | 17 | 983.8 |
| 20260903223816 | 92 | 54 | 2.0 | 4.0 | 0.00 | 0.00 | 0.00 | 17 | 983.9 |
| 20260903222703 | 92 | 131 | 3.0 | 6.0 | 0.00 | 0.00 | 0.00 | 17 | 984.1 |
| 20260903221803 | 92 | 142 | 5.0 | 11.0 | 0.00 | 0.00 | 0.00 | 17 | 984.2 |
| 20260903220903 | 92 | 137 | 4.0 | 8.0 | 0.00 | 0.00 | 0.00 | 17 | 984.3 |
| 20260903220003 | 91 | 134 | 4.0 | 9.0 | 0.00 | 0.00 | 0.00 | 17 | 984.5 |
| 20260903215403 | 91 | 135 | 5.0 | 11.0 | 0.00 | 0.00 | 0.00 | 17 | 984.5 |
| 20260903214717 | 91 | 140 | 5.0 | 11.0 | 0.00 | 0.00 | 0.00 | 16 | 984.4 |
| 20260903213604 | 92 | 146 | 7.0 | 12.0 | 0.00 | 0.00 | 0.00 | 17 | 984.5 |
| 20260903212703 | 92 | 161 | 6.0 | 14.0 | 0.00 | 0.00 | 0.00 | 17 | 984.5 |
| 20260903211803 | 91 | 148 | 6.0 | 10.0 | 0.00 | 0.00 | 0.00 | 18 | 984.5 |
| 20260903210903 | 92 | 233 | 5.0 | 16.0 | 0.00 | 0.00 | 0.00 | 18 | 984.6 |
| 20260903210218 | 92 | 207 | 5.0 | 16.0 | 0.00 | 0.00 | 0.00 | 16 | 984.7 |
| 20260903205617 | 92 | 280 | 4.0 | 13.0 | 0.00 | 0.00 | 0.00 | 18 | 984.7 |
| 20260903204503 | 92 | 349 | 5.0 | 11.0 | 0.00 | 0.00 | 0.00 | 19 | 984.9 |
| 20260903203603 | 92 | 322 | 5.0 | 14.0 | 0.00 | 0.00 | 0.00 | 19 | 985.0 |
| 20260903202704 | 91 | 271 | 4.0 | 13.0 | 0.00 | 0.00 | 0.00 | 20 | 985.1 |
| 20260903202016 | 91 | 293 | 5.0 | 13.0 | 0.00 | 0.00 | 0.00 | 18 | 985.1 |
| 20260903200903 | 90 | 285 | 6.0 | 15.0 | 0.00 | 0.00 | 0.00 | 19 | 985.2 |
| 20260903200003 | 89 | 307 | 5.0 | 12.0 | 0.00 | 0.00 | 0.00 | 18 | 985.4 |
| 20260903195617 | 89 | 313 | 5.0 | 12.0 | 0.00 | 0.00 | 0.00 | 19 | 985.4 |
| 20260903194503 | 89 | 304 | 7.0 | 15.0 | 0.00 | 0.00 | 0.00 | 20 | 985.6 |
| 20260903193603 | 89 | 303 | 8.0 | 16.0 | 0.00 | 0.00 | 0.00 | 23 | 985.7 |
| 20260903192917 | 89 | 303 | 8.0 | 16.0 | 0.00 | 0.00 | 0.00 | 22 | 985.8 |
| 20260903191804 | 89 | 272 | 5.0 | 14.0 | 0.00 | 0.00 | 0.00 | 21 | 986.0 |
| 20260903190903 | 88 | 295 | 7.0 | 13.0 | 0.00 | 0.00 | 0.00 | 23 | 986.3 |
| 20260903190003 | 88 | 296 | 8.0 | 16.0 | 0.00 | 0.00 | 0.00 | 21 | 986.3 |
| 20260903185403 | 88 | 301 | 9.0 | 17.0 | 0.00 | 0.00 | 0.00 | 23 | 986.4 |
| 20260903184503 | 87 | 293 | 9.0 | 21.0 | 0.00 | 0.00 | 0.00 | 22 | 986.6 |
| 20260903183817 | 87 | 293 | 7.0 | 19.0 | 0.00 | 0.00 | 0.00 | 23 | 986.7 |
| 20260903182703 | 87 | 298 | 8.0 | 18.0 | 0.00 | 0.00 | 0.00 | 22 | 986.8 |
| 20260903181803 | 87 | 295 | 7.0 | 18.0 | 0.00 | 0.00 | 0.00 | 24 | 987.1 |
| 20260903180904 | 86 | 294 | 7.0 | 17.0 | 0.00 | 0.00 | 0.00 | 21 | 987.1 |
| 20260903180003 | 86 | 294 | 8.0 | 17.0 | 0.00 | 0.00 | 0.00 | 22 | 987.2 |
| 20260903175403 | 86 | 281 | 7.0 | 16.0 | 0.00 | 0.00 | 0.00 | 22 | 987.3 |
| 20260903174503 | 86 | 295 | 6.0 | 14.0 | 0.00 | 0.00 | 0.00 | 25 | 987.3 |
| 20260903173603 | 85 | 300 | 7.0 | 19.0 | 0.00 | 0.00 | 0.00 | 26 | 987.4 |
| 20260903172703 | 85 | 301 | 7.0 | 14.0 | 0.00 | 0.00 | 0.00 | 26 | 987.6 |
| 20260903171803 | 85 | 296 | 7.0 | 16.0 | 0.00 | 0.00 | 0.00 | 26 | 987.6 |
| 20260903170904 | 84 | 296 | 8.0 | 19.0 | 0.00 | 0.00 | 0.00 | 27 | 987.6 |
| 20260903170004 | 84 | 313 | 8.0 | 17.0 | 0.00 | 0.00 | 0.00 | 29 | 987.6 |
| 20260903165403 | 84 | 310 | 9.0 | 23.0 | 0.00 | 0.00 | 0.00 | 28 | 987.5 |
| 20260903164503 | 83 | 312 | 11.0 | 18.0 | 0.00 | 0.00 | 0.00 | 28 | 987.6 |
| 20260903163603 | 83 | 306 | 9.0 | 18.0 | 0.00 | 0.00 | 0.00 | 30 | 987.7 |
| 20260903162703 | 83 | 306 | 9.0 | 18.0 | 0.00 | 0.00 | 0.00 | 28 | 987.6 |
| 20260903161803 | 82 | 313 | 9.0 | 16.0 | 0.00 | 0.00 | 0.00 | 34 | 987.6 |
| 20260903160903 | 82 | 307 | 7.0 | 15.0 | 0.00 | 0.00 | 0.00 | 31 | 987.6 |
| 20260903160003 | 82 | 305 | 8.0 | 16.0 | 0.00 | 0.00 | 0.00 | 31 | 987.7 |
| 20260903155404 | 81 | 310 | 9.0 | 16.0 | 0.00 | 0.00 | 0.00 | 30 | 987.7 |
| 20260903154503 | 81 | 310 | 8.0 | 14.0 | 0.00 | 0.00 | 0.00 | 29 | 987.8 |
| 20260903153818 | 81 | 305 | 6.0 | 13.0 | 0.00 | 0.00 | 0.00 | 33 | 987.9 |
| 20260903152917 | 81 | 297 | 6.0 | 11.0 | 0.00 | 0.00 | 0.00 | 34 | 988.0 |
| 20260903152016 | 80 | 302 | 8.0 | 15.0 | 0.00 | 0.00 | 0.00 | 31 | 988.0 |
| 20260903151118 | 79 | 318 | 3.0 | 11.0 | 0.00 | 0.00 | 0.00 | 38 | 987.9 |
| 20260903150003 | 77 | 300 | 1.0 | 4.0 | 0.00 | 0.00 | 0.00 | 39 | 988.2 |
| 20260903145403 | 76 | 293 | 2.0 | 4.0 | 0.00 | 0.00 | 0.00 | 40 | 988.4 |
| 20260903144504 | 75 | 293 | 2.0 | 6.0 | 0.00 | 0.00 | 0.00 | 40 | 988.6 |
| 20260903143603 | 73 | 290 | 2.0 | 6.0 | 0.00 | 0.00 | 0.00 | 42 | 988.7 |
| 20260903142703 | 72 | 303 | 1.0 | 6.0 | 0.00 | 0.00 | 0.00 | 49 | 988.7 |
| 20260903141803 | 70 | 317 | 1.0 | 3.0 | 0.00 | 0.00 | 0.00 | 52 | 988.8 |
| 20260903140903 | 68 | 320 | 2.0 | 4.0 | 0.00 | 0.00 | 0.00 | 52 | 988.9 |
| 20260903140217 | 68 | 328 | 2.0 | 4.0 | 0.00 | 0.00 | 0.00 | 51 | 988.9 |